TimeEST,TemperatureF,Dew PointF,Humidity,Sea Level PressureIn,VisibilityMPH,Wind Direction,Wind SpeedMPH,Gust SpeedMPH,PrecipitationIn,Events,Conditions,WindDirDegrees,DateUTC
12:34 AM,53.6,53.6,100,29.97,10.0,SSW,9.2,-,0.00,,Overcast,210,2012-12-08 05:34:00
12:53 AM,55.0,54.0,96,29.96,10.0,SSW,8.1,-,0.00,,Overcast,210,2012-12-08 05:53:00
1:22 AM,55.4,55.4,100,29.95,10.0,SSW,8.1,17.3,N/A,,Overcast,210,2012-12-08 06:22:00
1:30 AM,57.2,55.4,94,29.95,10.0,SSW,11.5,17.3,N/A,,Overcast,210,2012-12-08 06:30:00
1:53 AM,57.0,55.9,96,29.95,8.0,SW,11.5,17.3,N/A,,Overcast,220,2012-12-08 06:53:00
2:04 AM,55.4,55.4,100,29.95,9.0,SSW,10.4,18.4,0.00,,Overcast,210,2012-12-08 07:04:00
2:53 AM,55.9,55.9,100,29.94,4.0,WSW,8.1,-,0.01,Rain,Light Rain,240,2012-12-08 07:53:00
2:58 AM,55.4,55.4,100,29.94,1.8,WSW,8.1,-,0.05,Rain,Heavy Rain,240,2012-12-08 07:58:00
3:23 AM,57.2,57.2,100,29.93,1.8,SW,9.2,-,0.19,Rain,Light Rain,230,2012-12-08 08:23:00
3:25 AM,57.2,57.2,100,29.93,2.0,SW,9.2,-,0.19,Rain,Light Rain,230,2012-12-08 08:25:00
3:36 AM,57.2,57.2,100,29.93,4.0,SW,9.2,-,0.20,Rain,Light Rain,230,2012-12-08 08:36:00
3:50 AM,57.2,57.2,100,29.93,2.5,WSW,6.9,-,0.21,Rain,Light Rain,240,2012-12-08 08:50:00
3:53 AM,57.0,57.0,100,29.93,2.5,West,6.9,-,0.21,Rain,Light Rain,260,2012-12-08 08:53:00
4:00 AM,55.4,55.4,100,29.92,2.5,NW,5.8,-,0.00,Rain,Light Rain,310,2012-12-08 09:00:00
4:08 AM,55.4,55.4,100,29.92,3.0,NW,5.8,-,0.00,,Overcast,310,2012-12-08 09:08:00
4:15 AM,55.4,55.4,100,29.93,2.0,NW,5.8,-,0.00,,Overcast,310,2012-12-08 09:15:00
4:39 AM,53.6,53.6,100,29.92,1.8,WNW,3.5,-,0.00,,Overcast,300,2012-12-08 09:39:00
4:49 AM,53.6,53.6,100,29.92,2.5,West,3.5,-,0.00,,Overcast,280,2012-12-08 09:49:00
4:53 AM,54.0,54.0,100,29.92,3.0,Calm,Calm,-,0.00,,Overcast,0,2012-12-08 09:53:00
5:04 AM,53.6,53.6,100,29.92,3.0,Calm,Calm,-,N/A,,Overcast,0,2012-12-08 10:04:00
5:35 AM,53.6,53.6,100,29.93,5.0,Calm,Calm,-,N/A,,Overcast,0,2012-12-08 10:35:00
5:53 AM,54.0,54.0,100,29.93,5.0,Calm,Calm,-,N/A,,Overcast,0,2012-12-08 10:53:00
6:51 AM,53.6,53.6,100,29.94,4.0,West,3.5,-,N/A,,Overcast,260,2012-12-08 11:51:00
6:53 AM,53.1,53.1,100,29.94,4.0,West,3.5,-,N/A,,Overcast,270,2012-12-08 11:53:00
7:17 AM,53.6,53.6,100,29.94,2.5,Calm,Calm,-,N/A,,Overcast,0,2012-12-08 12:17:00
7:39 AM,53.6,53.6,100,29.94,1.8,Calm,Calm,-,N/A,,Overcast,0,2012-12-08 12:39:00
7:53 AM,54.0,54.0,100,29.94,1.5,Calm,Calm,-,N/A,,Overcast,0,2012-12-08 12:53:00
8:21 AM,53.6,53.6,100,29.95,3.0,WSW,3.5,-,N/A,,Overcast,240,2012-12-08 13:21:00
8:31 AM,53.6,53.6,100,29.95,3.0,Calm,Calm,-,N/A,,Overcast,0,2012-12-08 13:31:00
8:53 AM,54.0,54.0,100,29.95,3.0,WSW,4.6,-,N/A,,Overcast,250,2012-12-08 13:53:00
9:03 AM,53.6,53.6,100,29.95,2.0,SSW,4.6,-,N/A,,Overcast,210,2012-12-08 14:03:00
9:10 AM,53.6,53.6,100,29.96,1.8,SSW,3.5,-,N/A,,Overcast,200,2012-12-08 14:10:00
9:31 AM,53.6,53.6,100,29.96,0.8,South,4.6,-,N/A,,Overcast,190,2012-12-08 14:31:00
9:53 AM,53.1,53.1,100,29.96,0.5,SSW,4.6,-,N/A,Fog,Fog,210,2012-12-08 14:53:00
10:45 AM,53.6,53.6,100,29.96,1.0,SW,6.9,-,N/A,,Overcast,230,2012-12-08 15:45:00
10:53 AM,54.0,54.0,100,29.96,1.2,SW,4.6,-,N/A,,Overcast,220,2012-12-08 15:53:00
11:09 AM,55.4,55.4,100,29.95,3.0,WSW,4.6,-,N/A,,Overcast,250,2012-12-08 16:09:00
11:26 AM,55.4,55.4,100,29.95,4.0,SW,5.8,-,N/A,,Overcast,230,2012-12-08 16:26:00
11:53 AM,55.0,55.0,100,29.94,6.0,WSW,6.9,-,N/A,,Overcast,240,2012-12-08 16:53:00
12:53 PM,55.9,54.0,93,29.93,5.0,West,6.9,-,N/A,,Overcast,270,2012-12-08 17:53:00
1:53 PM,55.9,53.1,90,29.93,8.0,West,4.6,-,N/A,,Overcast,280,2012-12-08 18:53:00
2:53 PM,55.0,53.1,93,29.92,6.0,SW,4.6,-,N/A,,Overcast,230,2012-12-08 19:53:00
3:53 PM,54.0,53.1,97,29.94,6.0,West,4.6,-,N/A,,Overcast,260,2012-12-08 20:53:00
4:53 PM,53.1,52.0,96,29.95,6.0,Calm,Calm,-,N/A,,Overcast,0,2012-12-08 21:53:00
5:43 PM,51.8,51.8,100,29.96,5.0,WNW,5.8,-,N/A,,Overcast,290,2012-12-08 22:43:00
5:53 PM,51.1,51.1,100,29.97,4.0,WNW,3.5,-,N/A,,Overcast,300,2012-12-08 22:53:00
6:53 PM,51.1,51.1,100,29.98,3.0,West,3.5,-,N/A,,Overcast,260,2012-12-08 23:53:00
6:59 PM,50.0,50.0,100,29.98,1.8,West,4.6,-,N/A,,Overcast,280,2012-12-08 23:59:00
7:27 PM,50.0,50.0,100,29.99,0.8,WNW,3.5,-,N/A,,Overcast,300,2012-12-09 00:27:00
7:53 PM,50.0,50.0,100,30.00,0.5,SW,3.5,-,N/A,Fog,Fog,220,2012-12-09 00:53:00
8:10 PM,50.0,50.0,100,30.00,0.2,Calm,Calm,-,N/A,Fog,Fog,0,2012-12-09 01:10:00
8:53 PM,50.0,50.0,100,30.00,0.5,WSW,5.8,-,N/A,Fog,Fog,240,2012-12-09 01:53:00
9:02 PM,50.0,50.0,100,30.01,0.2,SW,4.6,-,N/A,Fog,Fog,230,2012-12-09 02:02:00
9:33 PM,50.0,50.0,100,30.02,0.5,SW,5.8,-,N/A,Fog,Fog,230,2012-12-09 02:33:00
9:53 PM,50.0,50.0,100,30.01,0.2,SW,4.6,-,N/A,Fog,Fog,230,2012-12-09 02:53:00
10:01 PM,50.0,50.0,100,30.01,0.5,SW,4.6,-,N/A,Fog,Fog,220,2012-12-09 03:01:00
10:14 PM,50.0,50.0,100,30.01,0.2,SW,3.5,-,N/A,Fog,Fog,220,2012-12-09 03:14:00
10:34 PM,50.0,50.0,100,30.02,0.5,WSW,3.5,-,N/A,Fog,Fog,240,2012-12-09 03:34:00
10:53 PM,48.9,48.9,100,30.03,0.5,Calm,Calm,-,N/A,Fog,Fog,0,2012-12-09 03:53:00
11:38 PM,48.2,48.2,100,30.02,0.2,SW,4.6,-,N/A,Fog,Fog,220,2012-12-09 04:38:00
11:53 PM,48.0,48.0,100,30.02,0.2,Calm,Calm,-,N/A,Fog,Fog,0,2012-12-09 04:53:00